Location: Newark
(35.2672°N, 80.7344°W)
Time: 18:17:33
(UTC+00:00)

Tiros 1 - Pass Details

Date: 20 January 2020
Orbit: 631 x 664 km, 48.4° (Epoch: 26 February)

Event Time Altitude Azimuth Distance (km) Brightness Sun altitude
Rises 02:48:51 0° 303° (WNW) 2,991 - -50.9°
Reaches altitude 10° 02:51:14 10° 299° (WNW) 2,079 - -51.4°
Maximum altitude 02:55:56 55° 222° (SW) 797 - -52.3°
Drops below altitude 10° 03:00:36 10° 145° (SE) 2,069 - -53.2°
Sets 03:02:58 0° 141° (SE) 2,976 - -53.7°
